Starlink 30840

operational
NORAD ID: 58223 Int'l Des: 2023-170 Owner: SPXS Country: US Constellation: starlink
LEOCIRCULAR

Über Starlink 30840

Beschreibung wird geladen...

Live-Position

3D-Globus wird geladen...

Nächste Überflüge

Höhenverlauf

Altitude vs Time

uPlot chart will show altitude changes over time

Zweizeiliger Elementsatz

1 58223U 23170T 25258.17197426 .00000481 00000-0 50677-4 0 9994
2 58223 43.0025 69.9072 0001190 269.8160 90.2546 15.02537382103873
Epoch: 15. Sept. 2025 • Age: 10 hours

Aktueller Status

Höhe 561.6 km
Geschwindigkeit 7.59 km/s
Subsatellitenpunkt 36.47°N, 12.65°W
Startdatum 4. Nov. 2023
Alter 1.8 years
Typ internet

Technische Details

Klassifizierung Payload
Masse 730.00 kg
Trockenmasse 700.00 kg
Gesamtmasse 730.00 kg
Länge 0.30 m
Durchmesser 4.10 m
Spannweite 29.00 m
Form Box + pan
Hersteller SPXS
Bus-Typ Starlink V2M
Phasenstatus In Orbit
Besitzer/Staat SPXS/US

Große Konstellationen

Loading constellations...